Location: La Oliva
(42.2466°N, 2.9955°E)
Time: 10:38:46
(UTC+00:00)

ERS-1 Rocket - Pass Details

Date: 22 April 2021
Orbit: 753 x 758 km, 98.4° (Epoch: 10 May)

Event Time Altitude Azimuth Distance (km) Brightness Sun altitude
Exits shadow 21:33:53 81° 311° (NW) 769 2.9 -27.4°
Drops below altitude 10° 21:38:42 10° 345° (NNW) 2,286 6.3 -27.9°
Sets 21:41:00 0° 347° (NNW) 3,215 7.3 -28.1°
